TimeEST,TemperatureF,Dew PointF,Humidity,Sea Level PressureIn,VisibilityMPH,Wind Direction,Wind SpeedMPH,Gust SpeedMPH,PrecipitationIn,Events,Conditions,WindDirDegrees,DateUTC
12:56 AM,52.0,51.1,97,29.97,10.0,Calm,Calm,-,N/A,,Clear,0,2013-11-03 04:56:00
1:56 AM,54.0,50.0,86,29.98,10.0,NW,4.6,-,N/A,,Clear,320,2013-11-03 05:56:00
1:56 AM,54.0,50.0,86,30.00,10.0,NNW,6.9,-,N/A,,Clear,330,2013-11-03 06:56:00
2:56 AM,53.1,48.9,86,30.01,10.0,NNW,8.1,-,N/A,,Clear,330,2013-11-03 07:56:00
3:56 AM,52.0,48.0,86,30.02,10.0,NNW,6.9,-,N/A,,Clear,330,2013-11-03 08:56:00
4:56 AM,50.0,46.9,89,30.03,10.0,NNW,4.6,-,N/A,,Clear,330,2013-11-03 09:56:00
5:56 AM,50.0,46.9,89,30.05,10.0,NNW,6.9,-,N/A,,Clear,330,2013-11-03 10:56:00
6:56 AM,48.9,46.0,90,30.08,10.0,NNW,5.8,-,N/A,,Clear,340,2013-11-03 11:56:00
7:56 AM,53.1,46.9,80,30.11,10.0,North,9.2,-,N/A,,Clear,350,2013-11-03 12:56:00
8:56 AM,57.0,48.0,72,30.14,10.0,North,9.2,-,N/A,,Partly Cloudy,10,2013-11-03 13:56:00
9:56 AM,62.1,48.9,62,30.15,10.0,North,10.4,-,N/A,,Partly Cloudy,360,2013-11-03 14:56:00
10:56 AM,66.0,50.0,56,30.15,10.0,North,11.5,-,N/A,,Partly Cloudy,10,2013-11-03 15:56:00
11:56 AM,68.0,51.1,55,30.14,10.0,North,11.5,-,N/A,,Partly Cloudy,10,2013-11-03 16:56:00
12:56 PM,68.0,46.9,47,30.12,10.0,NE,17.3,23.0,N/A,,Scattered Clouds,40,2013-11-03 17:56:00
1:56 PM,70.0,46.0,42,30.12,10.0,NNE,16.1,-,N/A,,Scattered Clouds,30,2013-11-03 18:56:00
2:56 PM,69.1,44.1,40,30.12,10.0,NE,17.3,-,N/A,,Partly Cloudy,40,2013-11-03 19:56:00
3:56 PM,66.9,46.0,47,30.13,10.0,NE,15.0,-,N/A,,Scattered Clouds,50,2013-11-03 20:56:00
4:56 PM,64.9,46.0,50,30.15,10.0,NNE,12.7,-,N/A,,Partly Cloudy,30,2013-11-03 21:56:00
5:56 PM,60.1,48.0,64,30.17,10.0,North,6.9,-,N/A,,Partly Cloudy,10,2013-11-03 22:56:00
6:56 PM,57.0,48.9,74,30.18,10.0,North,6.9,-,N/A,,Partly Cloudy,360,2013-11-03 23:56:00
7:56 PM,55.9,48.0,75,30.20,10.0,North,8.1,-,N/A,,Partly Cloudy,10,2013-11-04 00:56:00
8:56 PM,54.0,46.9,77,30.21,10.0,North,3.5,-,N/A,,Clear,10,2013-11-04 01:56:00
9:56 PM,53.1,46.9,80,30.22,10.0,Calm,Calm,-,N/A,,Clear,0,2013-11-04 02:56:00
10:56 PM,53.1,46.9,80,30.22,10.0,NNW,4.6,-,N/A,,Clear,340,2013-11-04 03:56:00